Location: Ab? ar R?sh Ba?r?
(24.1861°N, 32.8847°E)
Time: 21:32:39
(UTC+00:00)

Milstar 3 Cent rocket - Pass Details

Date: 31 May 2022
Orbit: 706 x 5146 km, 28.3° (Epoch: 02 July)

Event Time Altitude Azimuth Distance (km) Brightness Sun altitude
Rises 19:02:16 0° 287° (WNW) 8,029 8.1 -29.0°
Reaches altitude 10° 19:09:26 10° 280° (W) 6,221 7.2 -30.1°
Maximum altitude 19:23:34 33° 223° (SW) 2,882 4.8 -32.3°
Enters shadow 19:25:29 31° 205° (SSW) 2,725 4.5 -32.5°
